Back to catalog

COSMOS 1579 COOLANT

LostLEO
NORAD 27739·DEBRIS·🇷🇺 Russia

Launched Jun 29, 1984 from Baikonur Cosmodrome

Loading…

Next Passes (next 24 hours)

TLE

StaleSource: Space-Track

Epoch: Nov 23, 2023, 05:01 UTC

1 27739U 84069Z   23327.20903475  .00000249  00000-0  26615-3 0  9990
2 27739  65.0492 178.2447 0054653 312.2293  47.4140 13.91167110 92588

Track COSMOS 1579 COOLANT in real time with AllMySat

Download on the App Store